Location: ????????
(56.1167°N, 38.6333°E)
Time: 08:38:00
(UTC+00:00)

ATLAS 5 CENTAUR R/B - Pass Details

Date: 18 November 2025
Orbit: 372 x 1089 km, 63.3° (Epoch: 14 December)

Event Time Altitude Azimuth Distance (km) Brightness Sun altitude
Rises 14:28:53 0° 303° (WNW) 2,685 5.4 -10.4°
Reaches altitude 10° 14:31:07 10° 292° (WNW) 1,896 4.8 -10.7°
Maximum altitude 14:34:47 28° 233° (SW) 1,231 3.9 -11.1°
Drops below altitude 10° 14:39:09 10° 175° (S) 2,279 4.6 -11.7°
Sets 14:42:05 0° 165° (SSE) 3,342 5.3 -12.1°
